Погода в Короленко

Россия / Удмуртская Республика     56°25′17″N   51°46′23″E
В апреле 2022 года жителям России запретили посещать сайт meteo.paraplan.net по решению Генеральной прокуратуры. Аудитория сайта уменьшилась в 10 раз. Владельцы сайта не видят смысла в поддержке погодного сервера в таких условиях. Сайт будет закрыт в октябре.
темп.,
°C
ветер,
м/с
пор.,
м/с
влажн.,
%
обл.,
%
осадки,
мм/ч
давл.,
гПа
погр.,
м
4 октября, вт
вт401:00+10ю515535 0.0 1023495
04:00+8ююв41254100 0.0 1024306
07:00+8ююв41253100 0.0 1025327
10:00+10ююв51245100 0.0 1026501
13:00+12ю51142100 0.0 1027663
16:00+12ю41043100 0.0 1027533
19:00+10ююв5124396 0.0 1027469
22:00+8ююв41346100 0.0 1027369
5 октября, ср
ср501:00+8ююв41246100 0.0 1026349
04:00+8ю51346100 0.0 1026613
07:00+6ююв31175100 0.9 1026606
10:00+6ююв51479100 1.1 1025768
13:00+8ю51263100 0.0 1024721
16:00+10ю51151100 0.0 1023695
19:00+10ююв51164100 0.0 1022558
22:00+9ю51347100 0.0 1021627
6 октября, чт
чт601:00+6ююв51288100 3.1 1020538
04:00+7ююв51294100 5.3 1018619
07:00+7ююв5995100 1.5 1016469
10:00+7ю3890100 1.9 1015442
13:00+9ю3692100 0.1 1014579
16:00+9юз3687100 0.9 1014548
19:00+7зюз269291 0.9 1015242
22:00+6зюз3695100 1.1 1015303
7 октября, пт
пт701:00+6юз369497 0.3 1016330
04:00+5юз269783 0.3 1016213
07:00+5юз3796100 0.0 1016253
10:00+7юз379374 0.1 1015389
13:00+10юз5869100 0.0 10141261
16:00+7юз51182100 0.2 1013796
19:00+7зюз41195100 0.9 1013694
22:00+8з51291100 1.0 1014701
8 октября, сб
сб801:00+8з51292100 0.3 1014828
04:00+8зсз61287100 0.4 10151207
07:00+8зсз51289100 0.1 1017896
10:00+8зсз51080100 0.2 10201072
13:00+10з58728 0.1 1021958
16:00+10з477036 0.1 1022976
19:00+7зюз259013 0.0 102397
22:00+6юз27935 0.0 1023138